Time,TemperatureF,DewpointF,PressureIn,WindDirection,WindDirectionDegrees,WindSpeedMPH,WindSpeedGustMPH,Humidity,HourlyPrecipIn,Conditions,Clouds,dailyrainin,SoftwareType,DateUTC
2013-02-15 00:00:00,49.6,42.8,30.26,NNW,334,3.0,4.0,77,0.00,,,0.00,meteohub,2013-02-15 08:00:00,
2013-02-15 00:05:00,49.5,42.8,30.26,NNW,333,3.0,4.0,78,0.00,,,0.00,meteohub,2013-02-15 08:05:00,
2013-02-15 00:10:00,48.9,42.6,30.26,NNW,332,3.0,5.0,79,0.00,,,0.00,meteohub,2013-02-15 08:10:00,
2013-02-15 00:15:00,48.9,42.6,30.27,NNW,333,0.0,5.0,79,0.00,,,0.00,meteohub,2013-02-15 08:15:00,
2013-02-15 00:20:00,48.7,42.4,30.27,NNW,332,0.0,4.0,79,0.00,,,0.00,meteohub,2013-02-15 08:20:00,
2013-02-15 00:25:00,48.7,42.8,30.27,NNW,332,2.0,4.0,80,0.00,,,0.00,meteohub,2013-02-15 08:25:00,
2013-02-15 00:30:00,48.7,42.8,30.27,NNW,333,2.0,4.0,80,0.00,,,0.00,meteohub,2013-02-15 08:30:00,
2013-02-15 00:35:00,48.6,42.6,30.26,NNW,339,5.0,6.0,80,0.00,,,0.00,meteohub,2013-02-15 08:35:00,
2013-02-15 00:40:00,48.4,42.4,30.27,NNW,339,5.0,7.0,80,0.00,,,0.00,meteohub,2013-02-15 08:40:00,
2013-02-15 00:45:00,48.4,42.4,30.26,NNW,327,7.0,7.0,80,0.00,,,0.00,meteohub,2013-02-15 08:45:00,
2013-02-15 00:50:00,48.4,42.4,30.26,NW,324,4.0,8.0,80,0.00,,,0.00,meteohub,2013-02-15 08:50:00,
2013-02-15 00:55:00,48.6,42.6,30.26,NNW,338,5.0,8.0,80,0.00,,,0.00,meteohub,2013-02-15 08:55:00,
2013-02-15 01:00:00,48.6,42.3,30.26,NNW,348,5.0,8.0,79,0.00,,,0.00,meteohub,2013-02-15 09:00:00,
2013-02-15 01:05:00,48.7,42.4,30.26,NNW,343,6.0,8.0,79,0.00,,,0.00,meteohub,2013-02-15 09:05:00,
2013-02-15 01:10:00,49.1,42.6,30.26,NNW,347,10.0,10.0,78,0.00,,,0.00,meteohub,2013-02-15 09:10:00,
2013-02-15 01:15:00,49.3,42.4,30.26,NNW,343,8.0,11.0,77,0.00,,,0.00,meteohub,2013-02-15 09:15:00,
2013-02-15 01:20:00,49.3,42.4,30.26,NNW,339,7.0,11.0,77,0.00,,,0.00,meteohub,2013-02-15 09:20:00,
2013-02-15 01:25:00,49.6,43.0,30.26,NNW,331,4.0,10.0,78,0.00,,,0.00,meteohub,2013-02-15 09:25:00,
2013-02-15 01:30:00,49.6,43.7,30.26,NW,322,7.0,10.0,80,0.00,,,0.00,meteohub,2013-02-15 09:30:00,
2013-02-15 01:35:00,49.6,44.1,30.26,NW,315,5.0,9.0,81,0.00,,,0.00,meteohub,2013-02-15 09:35:00,
2013-02-15 01:40:00,49.8,45.5,30.27,NW,310,5.0,9.0,85,0.00,,,0.00,meteohub,2013-02-15 09:40:00,
2013-02-15 01:45:00,49.6,45.7,30.27,NW,311,4.0,9.0,86,0.00,,,0.00,meteohub,2013-02-15 09:45:00,
2013-02-15 01:50:00,49.5,45.5,30.27,NW,319,6.0,9.0,86,0.00,,,0.00,meteohub,2013-02-15 09:50:00,
2013-02-15 01:55:00,49.3,45.5,30.27,NNW,332,4.0,9.0,87,0.00,,,0.00,meteohub,2013-02-15 09:55:00,
2013-02-15 02:01:00,49.3,45.5,30.27,NNW,332,0.0,8.0,87,0.00,,,0.00,meteohub,2013-02-15 10:01:00,
2013-02-15 02:06:00,48.9,45.1,30.27,NNW,332,0.0,7.0,87,0.00,,,0.00,meteohub,2013-02-15 10:06:00,
2013-02-15 02:11:00,48.7,45.0,30.27,NNW,332,4.0,7.0,87,0.00,,,0.00,meteohub,2013-02-15 10:11:00,
2013-02-15 02:16:00,48.7,45.3,30.27,NNW,332,1.0,4.0,88,0.00,,,0.00,meteohub,2013-02-15 10:16:00,
2013-02-15 02:21:00,48.6,45.1,30.27,NNW,333,0.0,4.0,88,0.00,,,0.00,meteohub,2013-02-15 10:21:00,
2013-02-15 02:26:00,48.6,45.1,30.27,NNW,332,0.0,4.0,88,0.00,,,0.00,meteohub,2013-02-15 10:26:00,
2013-02-15 02:31:00,48.4,45.0,30.27,NNW,332,1.0,3.0,88,0.00,,,0.00,meteohub,2013-02-15 10:31:00,
2013-02-15 02:36:00,48.2,45.1,30.27,NNW,332,3.0,3.0,89,0.00,,,0.00,meteohub,2013-02-15 10:36:00,
2013-02-15 02:41:00,47.8,44.8,30.27,NNW,333,3.0,3.0,89,0.00,,,0.00,meteohub,2013-02-15 10:41:00,
2013-02-15 02:46:00,47.7,44.6,30.27,NNW,332,3.0,4.0,89,0.00,,,0.00,meteohub,2013-02-15 10:46:00,
2013-02-15 02:51:00,47.7,44.6,30.27,NNW,334,4.0,4.0,89,0.00,,,0.00,meteohub,2013-02-15 10:51:00,
2013-02-15 02:56:00,47.7,44.2,30.27,NNW,333,2.0,5.0,88,0.00,,,0.00,meteohub,2013-02-15 10:56:00,
2013-02-15 03:01:00,47.7,44.1,30.27,NNW,334,3.0,5.0,87,0.00,,,0.00,meteohub,2013-02-15 11:01:00,
2013-02-15 03:06:00,48.0,44.6,30.27,NNW,332,4.0,6.0,88,0.00,,,0.00,meteohub,2013-02-15 11:06:00,
2013-02-15 03:11:00,48.4,45.3,30.26,NNW,330,0.0,6.0,89,0.00,,,0.00,meteohub,2013-02-15 11:11:00,
2013-02-15 03:16:00,48.2,45.1,30.26,NW,326,3.0,6.0,89,0.00,,,0.00,meteohub,2013-02-15 11:16:00,
2013-02-15 03:21:00,48.4,45.3,30.26,NW,310,4.0,6.0,89,0.00,,,0.00,meteohub,2013-02-15 11:21:00,
2013-02-15 03:26:00,49.3,45.0,30.26,WNW,302,7.0,7.0,85,0.00,,,0.00,meteohub,2013-02-15 11:26:00,
2013-02-15 03:31:00,50.0,44.4,30.26,WNW,302,4.0,9.0,81,0.00,,,0.00,meteohub,2013-02-15 11:31:00,
2013-02-15 03:36:00,50.0,44.1,30.26,NW,312,2.0,10.0,80,0.00,,,0.00,meteohub,2013-02-15 11:36:00,
2013-02-15 03:41:00,50.0,43.3,30.26,NW,310,2.0,10.0,78,0.00,,,0.00,meteohub,2013-02-15 11:41:00,
2013-02-15 03:46:00,50.4,42.4,30.26,NW,318,4.0,9.0,74,0.00,,,0.00,meteohub,2013-02-15 11:46:00,
2013-02-15 03:51:00,51.3,41.9,30.26,NW,314,7.0,7.0,70,0.00,,,0.00,meteohub,2013-02-15 11:51:00,
2013-02-15 03:56:00,51.6,41.0,30.26,NNW,341,2.0,7.0,67,0.00,,,0.00,meteohub,2013-02-15 11:56:00,
2013-02-15 04:01:00,52.3,41.7,30.26,NNW,348,4.0,7.0,67,0.00,,,0.00,meteohub,2013-02-15 12:01:00,
2013-02-15 04:06:00,53.1,40.5,30.26,NE,42,3.0,7.0,62,0.00,,,0.00,meteohub,2013-02-15 12:06:00,
2013-02-15 04:11:00,55.8,39.9,30.26,NNE,18,8.0,11.0,55,0.00,,,0.00,meteohub,2013-02-15 12:11:00,
2013-02-15 04:16:00,57.4,38.8,30.25,NNE,23,6.0,12.0,50,0.00,,,0.00,meteohub,2013-02-15 12:16:00,
2013-02-15 04:21:00,57.9,38.3,30.25,NE,55,7.0,15.0,48,0.00,,,0.00,meteohub,2013-02-15 12:21:00,
2013-02-15 04:26:00,58.3,38.1,30.25,NNE,29,7.0,15.0,47,0.00,,,0.00,meteohub,2013-02-15 12:26:00,
2013-02-15 04:31:00,58.3,38.1,30.25,East,85,9.0,15.0,47,0.00,,,0.00,meteohub,2013-02-15 12:31:00,
2013-02-15 04:36:00,58.5,38.3,30.25,ENE,62,4.0,15.0,47,0.00,,,0.00,meteohub,2013-02-15 12:36:00,
2013-02-15 04:42:00,58.5,37.8,30.25,NE,52,15.0,16.0,46,0.00,,,0.00,meteohub,2013-02-15 12:42:00,
2013-02-15 04:47:00,58.8,37.6,30.25,ENE,66,11.0,16.0,45,0.00,,,0.00,meteohub,2013-02-15 12:47:00,
2013-02-15 04:52:00,59.0,37.8,30.26,NE,43,6.0,16.0,45,0.00,,,0.00,meteohub,2013-02-15 12:52:00,
2013-02-15 04:57:00,59.0,37.8,30.26,NE,50,14.0,16.0,45,0.00,,,0.00,meteohub,2013-02-15 12:57:00,
2013-02-15 05:03:00,59.2,37.9,30.26,NE,42,6.0,18.0,45,0.00,,,0.00,meteohub,2013-02-15 13:03:00,
2013-02-15 05:08:00,59.2,37.2,30.26,NE,49,12.0,18.0,44,0.00,,,0.00,meteohub,2013-02-15 13:08:00,
2013-02-15 05:14:00,59.5,37.6,30.26,NE,39,10.0,19.0,44,0.00,,,0.00,meteohub,2013-02-15 13:14:00,
2013-02-15 05:19:00,59.2,37.2,30.26,NE,37,4.0,19.0,44,0.00,,,0.00,meteohub,2013-02-15 13:19:00,
2013-02-15 05:24:00,59.2,37.2,30.26,NE,52,9.0,19.0,44,0.00,,,0.00,meteohub,2013-02-15 13:24:00,
2013-02-15 05:30:00,59.4,36.9,30.26,NNE,33,3.0,18.0,43,0.00,,,0.00,meteohub,2013-02-15 13:30:00,
2013-02-15 05:36:00,59.4,36.9,30.26,ENE,62,4.0,15.0,43,0.00,,,0.00,meteohub,2013-02-15 13:36:00,
2013-02-15 05:41:00,59.4,36.9,30.26,ENE,60,11.0,15.0,43,0.00,,,0.00,meteohub,2013-02-15 13:41:00,
2013-02-15 05:46:00,59.5,37.0,30.27,NE,44,5.0,17.0,43,0.00,,,0.00,meteohub,2013-02-15 13:46:00,
2013-02-15 05:51:00,59.4,36.3,30.27,ENE,69,5.0,17.0,42,0.00,,,0.00,meteohub,2013-02-15 13:51:00,
2013-02-15 05:56:00,59.4,36.9,30.27,ENE,57,10.0,17.0,43,0.00,,,0.00,meteohub,2013-02-15 13:56:00,
2013-02-15 06:01:00,59.5,36.5,30.27,ENE,64,7.0,16.0,42,0.00,,,0.00,meteohub,2013-02-15 14:01:00,
2013-02-15 06:06:00,59.5,36.5,30.27,ENE,75,9.0,13.0,42,0.00,,,0.00,meteohub,2013-02-15 14:06:00,
2013-02-15 06:11:00,59.4,36.3,30.27,East,83,3.0,13.0,42,0.00,,,0.00,meteohub,2013-02-15 14:11:00,
2013-02-15 06:16:00,59.4,36.3,30.27,ENE,77,5.0,13.0,42,0.00,,,0.00,meteohub,2013-02-15 14:16:00,
2013-02-15 06:21:00,59.4,36.3,30.27,ENE,64,0.0,12.0,42,0.00,,,0.00,meteohub,2013-02-15 14:21:00,
2013-02-15 06:26:00,59.2,36.1,30.27,East,81,6.0,11.0,42,0.00,,,0.00,meteohub,2013-02-15 14:26:00,
2013-02-15 06:31:00,59.2,36.1,30.27,East,79,0.0,9.0,42,0.00,,,0.00,meteohub,2013-02-15 14:31:00,
2013-02-15 06:36:00,59.2,36.1,30.27,NE,40,0.0,8.0,42,0.00,,,0.00,meteohub,2013-02-15 14:36:00,
2013-02-15 06:41:00,59.2,36.1,30.27,ENE,75,4.0,8.0,42,0.00,,,0.00,meteohub,2013-02-15 14:41:00,
2013-02-15 06:46:00,59.4,35.6,30.28,NE,50,4.0,8.0,41,0.00,,,0.00,meteohub,2013-02-15 14:46:00,
2013-02-15 06:51:00,59.2,35.4,30.28,NNE,28,3.0,8.0,41,0.00,,,0.00,meteohub,2013-02-15 14:51:00,
2013-02-15 06:56:00,59.2,35.4,30.28,NNE,21,0.0,8.0,41,0.00,,,0.00,meteohub,2013-02-15 14:56:00,
2013-02-15 07:01:00,59.2,35.4,30.28,NE,34,0.0,7.0,41,0.00,,,0.00,meteohub,2013-02-15 15:01:00,
2013-02-15 07:06:00,59.0,35.4,30.28,NNE,16,1.0,7.0,41,0.00,,,0.00,meteohub,2013-02-15 15:06:00,
2013-02-15 07:11:00,59.0,35.4,30.28,NE,48,0.0,7.0,41,0.00,,,0.00,meteohub,2013-02-15 15:11:00,
2013-02-15 07:16:00,59.0,35.4,30.29,NE,41,0.0,7.0,41,0.00,,,0.00,meteohub,2013-02-15 15:16:00,
2013-02-15 07:21:00,58.8,35.8,30.29,NW,321,1.0,7.0,42,0.00,,,0.00,meteohub,2013-02-15 15:21:00,
2013-02-15 07:26:00,59.0,36.0,30.29,ENE,63,1.0,5.0,42,0.00,,,0.00,meteohub,2013-02-15 15:26:00,
2013-02-15 07:32:00,58.8,35.8,30.29,NE,50,0.0,4.0,42,0.00,,,0.00,meteohub,2013-02-15 15:32:00,
2013-02-15 07:37:00,59.0,36.0,30.29,NNE,30,5.0,5.0,42,0.00,,,0.00,meteohub,2013-02-15 15:37:00,
2013-02-15 07:42:00,59.2,35.4,30.29,NE,44,4.0,9.0,41,0.00,,,0.00,meteohub,2013-02-15 15:42:00,
2013-02-15 07:47:00,59.4,35.6,30.30,ENE,68,0.0,9.0,41,0.00,,,0.00,meteohub,2013-02-15 15:47:00,
2013-02-15 07:52:00,59.5,35.8,30.30,NE,50,0.0,9.0,41,0.00,,,0.00,meteohub,2013-02-15 15:52:00,
2013-02-15 07:57:00,59.7,35.4,30.30,ENE,71,4.0,6.0,40,0.00,,,0.00,meteohub,2013-02-15 15:57:00,
2013-02-15 08:02:00,60.1,35.6,30.30,East,91,3.0,9.0,40,0.00,,,0.00,meteohub,2013-02-15 16:02:00,
2013-02-15 08:07:00,60.1,35.6,30.30,NNE,20,3.0,9.0,40,0.00,,,0.00,meteohub,2013-02-15 16:07:00,
2013-02-15 08:12:00,60.1,35.6,30.30,NNE,30,2.0,13.0,40,0.00,,,0.00,meteohub,2013-02-15 16:12:00,
2013-02-15 08:17:00,60.1,35.6,30.30,NNE,31,4.0,13.0,40,0.00,,,0.00,meteohub,2013-02-15 16:17:00,
2013-02-15 08:22:00,60.3,35.8,30.30,NE,56,0.0,13.0,40,0.00,,,0.00,meteohub,2013-02-15 16:22:00,
2013-02-15 08:27:00,60.4,36.0,30.30,East,79,3.0,5.0,40,0.00,,,0.00,meteohub,2013-02-15 16:27:00,
2013-02-15 08:32:00,60.6,36.1,30.30,NE,43,4.0,6.0,40,0.00,,,0.00,meteohub,2013-02-15 16:32:00,
2013-02-15 08:37:00,60.6,35.6,30.31,NE,52,5.0,7.0,39,0.00,,,0.00,meteohub,2013-02-15 16:37:00,
2013-02-15 08:42:00,60.6,36.1,30.31,NE,56,1.0,13.0,40,0.00,,,0.00,meteohub,2013-02-15 16:42:00,
2013-02-15 08:47:00,61.0,36.5,30.31,NNE,32,0.0,13.0,40,0.00,,,0.00,meteohub,2013-02-15 16:47:00,
2013-02-15 08:52:00,61.3,36.1,30.31,NE,52,5.0,13.0,39,0.00,,,0.00,meteohub,2013-02-15 16:52:00,
2013-02-15 08:57:00,61.3,36.1,30.31,ENE,64,8.0,8.0,39,0.00,,,0.00,meteohub,2013-02-15 16:57:00,
2013-02-15 09:02:00,61.2,36.0,30.31,East,84,3.0,11.0,39,0.00,,,0.00,meteohub,2013-02-15 17:02:00,
2013-02-15 09:07:00,61.3,36.1,30.31,ENE,70,5.0,13.0,39,0.00,,,0.00,meteohub,2013-02-15 17:07:00,
2013-02-15 09:13:00,61.5,36.3,30.31,ENE,59,9.0,13.0,39,0.00,,,0.00,meteohub,2013-02-15 17:13:00,
2013-02-15 09:18:00,61.5,35.6,30.31,ENE,75,11.0,15.0,38,0.00,,,0.00,meteohub,2013-02-15 17:18:00,
2013-02-15 09:23:00,61.5,36.3,30.31,East,79,10.0,15.0,39,0.00,,,0.00,meteohub,2013-02-15 17:23:00,
2013-02-15 09:28:00,61.9,36.7,30.31,East,94,7.0,15.0,39,0.00,,,0.00,meteohub,2013-02-15 17:28:00,
2013-02-15 09:33:00,62.1,36.9,30.31,ENE,76,8.0,13.0,39,0.00,,,0.00,meteohub,2013-02-15 17:33:00,
2013-02-15 09:38:00,62.2,37.0,30.31,East,91,8.0,13.0,39,0.00,,,0.00,meteohub,2013-02-15 17:38:00,
2013-02-15 09:43:00,62.2,36.3,30.31,East,91,11.0,11.0,38,0.00,,,0.00,meteohub,2013-02-15 17:43:00,
2013-02-15 09:48:00,62.2,36.3,30.31,ENE,60,7.0,14.0,38,0.00,,,0.00,meteohub,2013-02-15 17:48:00,
2013-02-15 09:53:00,62.4,37.2,30.31,East,82,3.0,14.0,39,0.00,,,0.00,meteohub,2013-02-15 17:53:00,
2013-02-15 09:58:00,62.6,43.2,30.31,ESE,121,0.0,14.0,49,0.00,,,0.00,meteohub,2013-02-15 17:58:00,
2013-02-15 10:03:00,62.6,43.2,30.31,SE,139,3.0,14.0,49,0.00,,,0.00,meteohub,2013-02-15 18:03:00,
2013-02-15 10:08:00,62.6,43.2,30.32,SE,145,1.0,10.0,49,0.00,,,0.00,meteohub,2013-02-15 18:08:00,
2013-02-15 10:13:00,63.0,44.6,30.32,SE,136,1.0,7.0,51,0.00,,,0.00,meteohub,2013-02-15 18:13:00,
2013-02-15 10:18:00,63.0,44.6,30.32,SE,138,1.0,6.0,51,0.00,,,0.00,meteohub,2013-02-15 18:18:00,
2013-02-15 10:23:00,63.0,45.1,30.32,SSE,153,2.0,6.0,52,0.00,,,0.00,meteohub,2013-02-15 18:23:00,
2013-02-15 10:28:00,63.0,44.6,30.32,SE,140,3.0,6.0,51,0.00,,,0.00,meteohub,2013-02-15 18:28:00,
2013-02-15 10:33:00,63.0,44.1,30.32,SE,131,2.0,6.0,50,0.00,,,0.00,meteohub,2013-02-15 18:33:00,
2013-02-15 10:38:00,63.7,41.4,30.32,East,92,9.0,9.0,44,0.00,,,0.00,meteohub,2013-02-15 18:38:00,
2013-02-15 10:43:00,64.2,38.7,30.32,East,83,9.0,9.0,39,0.00,,,0.00,meteohub,2013-02-15 18:43:00,
2013-02-15 10:48:00,64.4,38.8,30.32,ENE,73,4.0,10.0,39,0.00,,,0.00,meteohub,2013-02-15 18:48:00,
2013-02-15 10:53:00,64.8,38.5,30.32,East,87,6.0,13.0,38,0.00,,,0.00,meteohub,2013-02-15 18:53:00,
2013-02-15 10:58:00,64.8,38.5,30.32,NE,52,2.0,13.0,38,0.00,,,0.00,meteohub,2013-02-15 18:58:00,
2013-02-15 11:03:00,64.8,37.9,30.32,ENE,63,8.0,13.0,37,0.00,,,0.00,meteohub,2013-02-15 19:03:00,
2013-02-15 11:08:00,64.9,38.7,30.32,East,93,6.0,13.0,38,0.00,,,0.00,meteohub,2013-02-15 19:08:00,
2013-02-15 11:13:00,65.1,38.1,30.32,East,93,8.0,14.0,37,0.00,,,0.00,meteohub,2013-02-15 19:13:00,
2013-02-15 11:18:00,65.1,38.1,30.32,NE,37,8.0,15.0,37,0.00,,,0.00,meteohub,2013-02-15 19:18:00,
2013-02-15 11:23:00,65.5,39.2,30.32,ENE,69,2.0,15.0,38,0.00,,,0.00,meteohub,2013-02-15 19:23:00,
2013-02-15 11:28:00,65.8,38.8,30.32,East,89,10.0,15.0,37,0.00,,,0.00,meteohub,2013-02-15 19:28:00,
2013-02-15 11:33:00,65.8,39.6,30.32,East,88,9.0,13.0,38,0.00,,,0.00,meteohub,2013-02-15 19:33:00,
2013-02-15 11:38:00,65.8,38.8,30.32,East,87,8.0,16.0,37,0.00,,,0.00,meteohub,2013-02-15 19:38:00,
2013-02-15 11:43:00,65.8,38.8,30.31,NE,47,10.0,16.0,37,0.00,,,0.00,meteohub,2013-02-15 19:43:00,
2013-02-15 11:49:00,65.8,39.6,30.31,ENE,74,5.0,15.0,38,0.00,,,0.00,meteohub,2013-02-15 19:49:00,
2013-02-15 11:54:00,66.0,39.7,30.31,East,95,10.0,15.0,38,0.00,,,0.00,meteohub,2013-02-15 19:54:00,
2013-02-15 11:59:00,66.4,39.9,30.31,ENE,73,9.0,14.0,38,0.00,,,0.00,meteohub,2013-02-15 19:59:00,
2013-02-15 12:04:00,66.2,39.9,30.31,ENE,70,9.0,14.0,38,0.00,,,0.00,meteohub,2013-02-15 20:04:00,
2013-02-15 12:09:00,66.4,39.9,30.31,ENE,66,10.0,19.0,38,0.00,,,0.00,meteohub,2013-02-15 20:09:00,
2013-02-15 12:14:00,66.7,40.3,30.30,East,93,14.0,19.0,38,0.00,,,0.00,meteohub,2013-02-15 20:14:00,
2013-02-15 12:19:00,66.9,40.5,30.30,ENE,69,10.0,19.0,38,0.00,,,0.00,meteohub,2013-02-15 20:19:00,
2013-02-15 12:24:00,66.9,40.5,30.30,ENE,72,5.0,16.0,38,0.00,,,0.00,meteohub,2013-02-15 20:24:00,
2013-02-15 12:29:00,67.5,38.8,30.30,ENE,62,9.0,15.0,35,0.00,,,0.00,meteohub,2013-02-15 20:29:00,
2013-02-15 12:34:00,67.3,40.8,30.30,ENE,66,5.0,17.0,38,0.00,,,0.00,meteohub,2013-02-15 20:34:00,
2013-02-15 12:39:00,67.8,40.6,30.30,ENE,75,9.0,17.0,37,0.00,,,0.00,meteohub,2013-02-15 20:39:00,
2013-02-15 12:44:00,67.3,39.4,30.29,ENE,73,15.0,17.0,36,0.00,,,0.00,meteohub,2013-02-15 20:44:00,
2013-02-15 12:49:00,67.3,40.1,30.29,ENE,74,11.0,19.0,37,0.00,,,0.00,meteohub,2013-02-15 20:49:00,
2013-02-15 12:54:00,67.5,40.3,30.29,East,85,7.0,19.0,37,0.00,,,0.00,meteohub,2013-02-15 20:54:00,
2013-02-15 12:59:00,67.8,40.6,30.29,ENE,72,7.0,19.0,37,0.00,,,0.00,meteohub,2013-02-15 20:59:00,
2013-02-15 13:04:00,67.6,41.2,30.29,ENE,72,11.0,17.0,38,0.00,,,0.00,meteohub,2013-02-15 21:04:00,
2013-02-15 13:09:00,67.8,40.6,30.29,East,93,10.0,16.0,37,0.00,,,0.00,meteohub,2013-02-15 21:09:00,
2013-02-15 13:14:00,68.4,40.3,30.28,NE,54,15.0,16.0,36,0.00,,,0.00,meteohub,2013-02-15 21:14:00,
2013-02-15 13:19:00,68.2,40.3,30.28,NE,52,13.0,17.0,36,0.00,,,0.00,meteohub,2013-02-15 21:19:00,
2013-02-15 13:24:00,68.2,40.3,30.28,ENE,71,11.0,18.0,36,0.00,,,0.00,meteohub,2013-02-15 21:24:00,
2013-02-15 13:29:00,68.4,40.3,30.28,East,80,14.0,20.0,36,0.00,,,0.00,meteohub,2013-02-15 21:29:00,
2013-02-15 13:34:00,68.2,40.3,30.28,NE,43,12.0,20.0,36,0.00,,,0.00,meteohub,2013-02-15 21:34:00,
2013-02-15 13:39:00,68.0,40.8,30.27,NE,47,7.0,21.0,37,0.00,,,0.00,meteohub,2013-02-15 21:39:00,
2013-02-15 13:45:00,68.4,39.6,30.27,ENE,61,15.0,21.0,35,0.00,,,0.00,meteohub,2013-02-15 21:45:00,
2013-02-15 13:50:00,68.4,41.0,30.27,East,83,9.0,21.0,37,0.00,,,0.00,meteohub,2013-02-15 21:50:00,
2013-02-15 13:55:00,68.4,40.3,30.27,East,90,14.0,18.0,36,0.00,,,0.00,meteohub,2013-02-15 21:55:00,
2013-02-15 14:00:00,68.5,40.5,30.27,East,93,9.0,17.0,36,0.00,,,0.00,meteohub,2013-02-15 22:00:00,
2013-02-15 14:05:00,68.7,41.4,30.27,NE,50,6.0,16.0,37,0.00,,,0.00,meteohub,2013-02-15 22:05:00,
2013-02-15 14:10:00,69.1,41.7,30.27,ENE,77,12.0,16.0,37,0.00,,,0.00,meteohub,2013-02-15 22:10:00,
2013-02-15 14:15:00,69.1,41.7,30.27,East,99,13.0,14.0,37,0.00,,,0.00,meteohub,2013-02-15 22:15:00,
2013-02-15 14:20:00,69.1,41.7,30.27,East,90,11.0,16.0,37,0.00,,,0.00,meteohub,2013-02-15 22:20:00,
2013-02-15 14:25:00,69.1,41.7,30.27,East,90,9.0,16.0,37,0.00,,,0.00,meteohub,2013-02-15 22:25:00,
2013-02-15 14:30:00,69.4,41.4,30.27,East,85,7.0,16.0,36,0.00,,,0.00,meteohub,2013-02-15 22:30:00,
2013-02-15 14:35:00,69.6,40.8,30.27,East,86,10.0,15.0,35,0.00,,,0.00,meteohub,2013-02-15 22:35:00,
2013-02-15 14:40:00,70.0,41.7,30.27,East,83,8.0,13.0,36,0.00,,,0.00,meteohub,2013-02-15 22:40:00,
2013-02-15 14:45:00,69.6,41.5,30.27,East,81,9.0,14.0,36,0.00,,,0.00,meteohub,2013-02-15 22:45:00,
2013-02-15 14:50:00,69.8,41.7,30.26,East,92,8.0,15.0,36,0.00,,,0.00,meteohub,2013-02-15 22:50:00,
2013-02-15 14:55:00,70.0,41.0,30.27,ENE,68,4.0,15.0,35,0.00,,,0.00,meteohub,2013-02-15 22:55:00,
2013-02-15 15:00:00,70.0,41.7,30.27,East,100,9.0,14.0,36,0.00,,,0.00,meteohub,2013-02-15 23:00:00,
2013-02-15 15:05:00,70.2,42.6,30.27,ENE,77,4.0,13.0,37,0.00,,,0.00,meteohub,2013-02-15 23:05:00,
2013-02-15 15:10:00,70.2,41.9,30.27,ENE,73,8.0,13.0,36,0.00,,,0.00,meteohub,2013-02-15 23:10:00,
2013-02-15 15:15:00,70.2,42.6,30.27,ENE,78,9.0,13.0,37,0.00,,,0.00,meteohub,2013-02-15 23:15:00,
2013-02-15 15:20:00,70.2,42.6,30.26,NE,51,6.0,12.0,37,0.00,,,0.00,meteohub,2013-02-15 23:20:00,
2013-02-15 15:25:00,70.3,42.8,30.26,ENE,77,11.0,11.0,37,0.00,,,0.00,meteohub,2013-02-15 23:25:00,
2013-02-15 15:30:00,70.2,41.9,30.27,ENE,75,5.0,13.0,36,0.00,,,0.00,meteohub,2013-02-15 23:30:00,
2013-02-15 15:36:00,70.2,42.6,30.27,East,87,8.0,13.0,37,0.00,,,0.00,meteohub,2013-02-15 23:36:00,
2013-02-15 15:41:00,70.2,42.6,30.26,ENE,74,7.0,13.0,37,0.00,,,0.00,meteohub,2013-02-15 23:41:00,
2013-02-15 15:46:00,70.2,41.9,30.26,East,94,9.0,13.0,36,0.00,,,0.00,meteohub,2013-02-15 23:46:00,
2013-02-15 15:51:00,70.2,42.6,30.26,East,80,8.0,13.0,37,0.00,,,0.00,meteohub,2013-02-15 23:51:00,
2013-02-15 15:56:00,70.0,43.2,30.26,East,86,8.0,13.0,38,0.00,,,0.00,meteohub,2013-02-15 23:56:00,
2013-02-15 16:01:00,70.2,43.3,30.26,East,79,5.0,13.0,38,0.00,,,0.00,meteohub,2013-02-16 00:01:00,
2013-02-15 16:06:00,70.2,43.3,30.26,NE,52,7.0,11.0,38,0.00,,,0.00,meteohub,2013-02-16 00:06:00,
2013-02-15 16:11:00,70.0,43.9,30.26,ENE,58,3.0,11.0,39,0.00,,,0.00,meteohub,2013-02-16 00:11:00,
2013-02-15 16:16:00,70.0,43.9,30.26,East,91,8.0,11.0,39,0.00,,,0.00,meteohub,2013-02-16 00:16:00,
2013-02-15 16:21:00,70.0,43.2,30.26,ENE,72,4.0,11.0,38,0.00,,,0.00,meteohub,2013-02-16 00:21:00,
2013-02-15 16:26:00,69.6,43.5,30.26,ENE,60,4.0,9.0,39,0.00,,,0.00,meteohub,2013-02-16 00:26:00,
2013-02-15 16:31:00,69.4,43.3,30.26,ENE,64,4.0,13.0,39,0.00,,,0.00,meteohub,2013-02-16 00:31:00,
2013-02-15 16:36:00,69.4,43.3,30.25,ENE,60,8.0,13.0,39,0.00,,,0.00,meteohub,2013-02-16 00:36:00,
2013-02-15 16:41:00,69.4,44.1,30.25,East,87,5.0,11.0,40,0.00,,,0.00,meteohub,2013-02-16 00:41:00,
2013-02-15 16:46:00,69.3,43.2,30.25,ENE,66,7.0,11.0,39,0.00,,,0.00,meteohub,2013-02-16 00:46:00,
2013-02-15 16:51:00,69.1,43.7,30.26,ENE,68,5.0,10.0,40,0.00,,,0.00,meteohub,2013-02-16 00:51:00,
2013-02-15 16:56:00,69.1,43.7,30.26,ENE,78,8.0,10.0,40,0.00,,,0.00,meteohub,2013-02-16 00:56:00,
2013-02-15 17:01:00,68.9,43.5,30.26,ENE,62,2.0,11.0,40,0.00,,,0.00,meteohub,2013-02-16 01:01:00,
2013-02-15 17:06:00,69.1,43.2,30.26,ENE,70,3.0,11.0,39,0.00,,,0.00,meteohub,2013-02-16 01:06:00,
2013-02-15 17:11:00,68.9,43.0,30.25,ENE,71,5.0,9.0,39,0.00,,,0.00,meteohub,2013-02-16 01:11:00,
2013-02-15 17:16:00,68.7,42.1,30.25,ENE,62,5.0,7.0,38,0.00,,,0.00,meteohub,2013-02-16 01:16:00,
2013-02-15 17:21:00,68.5,42.6,30.25,ENE,68,5.0,7.0,39,0.00,,,0.00,meteohub,2013-02-16 01:21:00,
2013-02-15 17:27:00,68.4,42.4,30.25,ENE,68,2.0,7.0,39,0.00,,,0.00,meteohub,2013-02-16 01:27:00,
2013-02-15 17:32:00,68.2,43.0,30.25,ENE,72,3.0,7.0,40,0.00,,,0.00,meteohub,2013-02-16 01:32:00,
2013-02-15 17:37:00,67.8,42.6,30.26,ENE,64,3.0,7.0,40,0.00,,,0.00,meteohub,2013-02-16 01:37:00,
2013-02-15 17:42:00,67.6,41.7,30.25,ESE,105,4.0,7.0,39,0.00,,,0.00,meteohub,2013-02-16 01:42:00,
2013-02-15 17:47:00,67.5,42.3,30.25,East,87,1.0,7.0,40,0.00,,,0.00,meteohub,2013-02-16 01:47:00,
2013-02-15 17:52:00,67.1,41.9,30.25,East,83,3.0,7.0,40,0.00,,,0.00,meteohub,2013-02-16 01:52:00,
2013-02-15 17:57:00,66.7,41.0,30.25,East,90,2.0,7.0,39,0.00,,,0.00,meteohub,2013-02-16 01:57:00,
2013-02-15 18:02:00,66.6,41.5,30.25,East,89,0.0,5.0,40,0.00,,,0.00,meteohub,2013-02-16 02:02:00,
2013-02-15 18:07:00,66.2,41.2,30.25,East,90,1.0,5.0,40,0.00,,,0.00,meteohub,2013-02-16 02:07:00,
2013-02-15 18:12:00,66.0,41.0,30.25,East,90,0.0,5.0,40,0.00,,,0.00,meteohub,2013-02-16 02:12:00,
2013-02-15 18:17:00,65.8,40.8,30.25,East,90,0.0,3.0,40,0.00,,,0.00,meteohub,2013-02-16 02:17:00,
2013-02-15 18:22:00,65.7,40.6,30.25,East,79,0.0,3.0,40,0.00,,,0.00,meteohub,2013-02-16 02:22:00,
2013-02-15 18:27:00,65.5,40.5,30.25,East,80,0.0,3.0,40,0.00,,,0.00,meteohub,2013-02-16 02:27:00,
2013-02-15 18:32:00,65.1,39.6,30.26,East,83,0.0,3.0,39,0.00,,,0.00,meteohub,2013-02-16 02:32:00,
2013-02-15 18:37:00,65.1,39.6,30.26,East,87,2.0,5.0,39,0.00,,,0.00,meteohub,2013-02-16 02:37:00,
2013-02-15 18:42:00,65.1,39.6,30.26,ESE,103,0.0,7.0,39,0.00,,,0.00,meteohub,2013-02-16 02:42:00,
2013-02-15 18:47:00,64.9,39.4,30.26,ESE,104,0.0,7.0,39,0.00,,,0.00,meteohub,2013-02-16 02:47:00,
2013-02-15 18:52:00,64.8,39.2,30.26,ESE,103,0.0,7.0,39,0.00,,,0.00,meteohub,2013-02-16 02:52:00,
2013-02-15 18:57:00,64.6,39.0,30.26,ESE,102,0.0,2.0,39,0.00,,,0.00,meteohub,2013-02-16 02:57:00,
2013-02-15 19:02:00,64.6,39.0,30.27,ESE,103,0.0,1.0,39,0.00,,,0.00,meteohub,2013-02-16 03:02:00,
2013-02-15 19:08:00,64.6,39.0,30.27,ESE,103,2.0,2.0,39,0.00,,,0.00,meteohub,2013-02-16 03:08:00,
2013-02-15 19:13:00,64.6,39.0,30.27,ESE,103,0.0,2.0,39,0.00,,,0.00,meteohub,2013-02-16 03:13:00,
2013-02-15 19:18:00,64.6,39.0,30.27,ESE,103,0.0,2.0,39,0.00,,,0.00,meteohub,2013-02-16 03:18:00,
2013-02-15 19:23:00,64.6,39.0,30.27,East,81,1.0,2.0,39,0.00,,,0.00,meteohub,2013-02-16 03:23:00,
2013-02-15 19:28:00,64.0,39.9,30.27,ENE,77,0.0,2.0,41,0.00,,,0.00,meteohub,2013-02-16 03:28:00,
2013-02-15 19:33:00,63.5,39.4,30.27,ENE,66,1.0,2.0,41,0.00,,,0.00,meteohub,2013-02-16 03:33:00,
2013-02-15 19:38:00,63.0,39.6,30.27,NNE,18,0.0,2.0,42,0.00,,,0.00,meteohub,2013-02-16 03:38:00,
2013-02-15 19:43:00,62.2,40.1,30.27,WNW,286,2.0,2.0,44,0.00,,,0.00,meteohub,2013-02-16 03:43:00,
2013-02-15 19:48:00,61.2,41.4,30.27,WNW,286,3.0,4.0,48,0.00,,,0.00,meteohub,2013-02-16 03:48:00,
2013-02-15 19:53:00,61.0,41.2,30.27,WNW,286,3.0,4.0,48,0.00,,,0.00,meteohub,2013-02-16 03:53:00,
2013-02-15 19:58:00,60.6,41.9,30.27,WNW,289,4.0,4.0,50,0.00,,,0.00,meteohub,2013-02-16 03:58:00,
2013-02-15 20:03:00,60.3,42.1,30.27,WNW,292,2.0,5.0,51,0.00,,,0.00,meteohub,2013-02-16 04:03:00,
2013-02-15 20:08:00,59.5,42.4,30.27,WNW,292,2.0,5.0,53,0.00,,,0.00,meteohub,2013-02-16 04:08:00,
2013-02-15 20:13:00,59.0,42.4,30.27,WNW,300,4.0,5.0,54,0.00,,,0.00,meteohub,2013-02-16 04:13:00,
2013-02-15 20:18:00,58.6,42.4,30.27,WNW,303,3.0,4.0,55,0.00,,,0.00,meteohub,2013-02-16 04:18:00,
2013-02-15 20:23:00,58.1,43.0,30.27,NW,326,4.0,4.0,57,0.00,,,0.00,meteohub,2013-02-16 04:23:00,
2013-02-15 20:28:00,57.6,43.0,30.27,NNW,341,5.0,6.0,58,0.00,,,0.00,meteohub,2013-02-16 04:28:00,
2013-02-15 20:33:00,57.0,42.8,30.27,NNW,338,5.0,7.0,59,0.00,,,0.00,meteohub,2013-02-16 04:33:00,
2013-02-15 20:38:00,56.8,43.2,30.27,NNW,337,6.0,7.0,60,0.00,,,0.00,meteohub,2013-02-16 04:38:00,
2013-02-15 20:43:00,56.7,43.0,30.27,NNW,331,6.0,7.0,60,0.00,,,0.00,meteohub,2013-02-16 04:43:00,
2013-02-15 20:48:00,56.7,43.0,30.27,NW,326,3.0,7.0,60,0.00,,,0.00,meteohub,2013-02-16 04:48:00,
2013-02-15 20:54:00,56.7,43.0,30.27,NNW,331,2.0,7.0,60,0.00,,,0.00,meteohub,2013-02-16 04:54:00,
2013-02-15 20:59:00,56.3,43.0,30.28,NNW,331,4.0,7.0,61,0.00,,,0.00,meteohub,2013-02-16 04:59:00,
2013-02-15 21:00:00,56.1,42.8,30.28,NNW,327,4.0,7.0,61,0.00,,,0.00,meteohub,2013-02-16 05:00:00,
2013-02-15 21:02:00,55.9,43.2,30.28,NNW,330,4.0,6.0,62,0.00,,,0.00,meteohub,2013-02-16 05:02:00,
2013-02-15 21:03:00,55.8,43.0,30.28,NNW,335,5.0,6.0,62,0.00,,,0.00,meteohub,2013-02-16 05:03:00,
2013-02-15 21:08:00,55.4,43.0,30.28,NNW,339,6.0,6.0,63,0.00,,,0.00,meteohub,2013-02-16 05:08:00,
2013-02-15 21:13:00,55.0,43.2,30.28,NNW,336,6.0,8.0,64,0.00,,,0.00,meteohub,2013-02-16 05:13:00,
2013-02-15 21:18:00,55.0,43.2,30.28,NNW,337,6.0,9.0,64,0.00,,,0.00,meteohub,2013-02-16 05:18:00,
2013-02-15 21:23:00,55.2,42.8,30.28,NNW,337,6.0,9.0,63,0.00,,,0.00,meteohub,2013-02-16 05:23:00,
2013-02-15 21:24:00,55.0,42.6,30.28,NNW,339,5.0,9.0,63,0.00,,,0.00,meteohub,2013-02-16 05:24:00,
2013-02-15 21:29:00,55.2,42.8,30.28,NNW,343,5.0,9.0,63,0.00,,,0.00,meteohub,2013-02-16 05:29:00,
2013-02-15 21:34:00,55.0,42.6,30.29,NNW,343,6.0,8.0,63,0.00,,,0.00,meteohub,2013-02-16 05:34:00,
2013-02-15 21:39:00,55.0,42.6,30.29,North,354,3.0,8.0,63,0.00,,,0.00,meteohub,2013-02-16 05:39:00,
2013-02-15 21:44:00,54.9,42.4,30.29,North,354,5.0,8.0,63,0.00,,,0.00,meteohub,2013-02-16 05:44:00,
2013-02-15 21:49:00,54.9,43.0,30.29,NNW,345,3.0,7.0,64,0.00,,,0.00,meteohub,2013-02-16 05:49:00,
2013-02-15 21:54:00,54.7,42.8,30.29,NNW,345,4.0,6.0,64,0.00,,,0.00,meteohub,2013-02-16 05:54:00,
2013-02-15 21:59:00,54.7,42.8,30.29,NNW,348,3.0,6.0,64,0.00,,,0.00,meteohub,2013-02-16 05:59:00,
2013-02-15 22:04:00,54.5,42.1,30.29,NNW,338,4.0,7.0,63,0.00,,,0.00,meteohub,2013-02-16 06:04:00,
2013-02-15 22:09:00,54.3,42.4,30.29,North,354,4.0,7.0,64,0.00,,,0.00,meteohub,2013-02-16 06:09:00,
2013-02-15 22:14:00,54.1,42.3,30.29,NNW,346,5.0,8.0,64,0.00,,,0.00,meteohub,2013-02-16 06:14:00,
2013-02-15 22:19:00,54.0,42.4,30.29,North,349,5.0,8.0,65,0.00,,,0.00,meteohub,2013-02-16 06:19:00,
2013-02-15 22:24:00,53.8,42.6,30.29,NNW,345,5.0,8.0,66,0.00,,,0.00,meteohub,2013-02-16 06:24:00,
2013-02-15 22:29:00,53.4,42.3,30.29,NNW,347,5.0,8.0,66,0.00,,,0.00,meteohub,2013-02-16 06:29:00,
2013-02-15 22:34:00,53.4,42.3,30.29,North,359,5.0,7.0,66,0.00,,,0.00,meteohub,2013-02-16 06:34:00,
2013-02-15 22:40:00,53.8,42.3,30.29,North,354,7.0,9.0,65,0.00,,,0.00,meteohub,2013-02-16 06:40:00,
2013-02-15 22:45:00,53.8,42.6,30.29,North,359,5.0,9.0,66,0.00,,,0.00,meteohub,2013-02-16 06:45:00,
2013-02-15 22:50:00,53.6,41.7,30.29,North,354,4.0,9.0,64,0.00,,,0.00,meteohub,2013-02-16 06:50:00,
2013-02-15 22:55:00,53.1,41.5,30.29,NNW,348,5.0,9.0,65,0.00,,,0.00,meteohub,2013-02-16 06:55:00,
2013-02-15 23:00:00,52.7,41.7,30.28,North,350,4.0,9.0,66,0.00,,,0.00,meteohub,2013-02-16 07:00:00,
2013-02-15 23:05:00,52.3,41.4,30.29,North,354,6.0,8.0,66,0.00,,,0.00,meteohub,2013-02-16 07:05:00,
2013-02-15 23:10:00,52.3,41.4,30.28,NNW,346,4.0,8.0,66,0.00,,,0.00,meteohub,2013-02-16 07:10:00,
2013-02-15 23:15:00,52.2,41.2,30.28,NNW,341,5.0,8.0,66,0.00,,,0.00,meteohub,2013-02-16 07:15:00,
2013-02-15 23:20:00,51.8,41.2,30.28,NNW,327,5.0,8.0,67,0.00,,,0.00,meteohub,2013-02-16 07:20:00,
2013-02-15 23:25:00,51.4,41.2,30.28,NNW,337,5.0,7.0,68,0.00,,,0.00,meteohub,2013-02-16 07:25:00,
2013-02-15 23:30:00,51.1,40.8,30.28,NNW,328,7.0,7.0,68,0.00,,,0.00,meteohub,2013-02-16 07:30:00,
2013-02-15 23:35:00,50.9,41.2,30.28,NNW,334,7.0,9.0,69,0.00,,,0.00,meteohub,2013-02-16 07:35:00,
2013-02-15 23:40:00,50.7,40.5,30.28,NNW,332,7.0,9.0,68,0.00,,,0.00,meteohub,2013-02-16 07:40:00,
2013-02-15 23:45:00,50.7,40.5,30.28,NNW,343,6.0,9.0,68,0.00,,,0.00,meteohub,2013-02-16 07:45:00,
2013-02-15 23:50:00,50.9,40.6,30.28,NW,321,6.0,9.0,68,0.00,,,0.00,meteohub,2013-02-16 07:50:00,
2013-02-15 23:55:00,51.1,41.2,30.28,NW,316,6.0,9.0,69,0.00,,,0.00,meteohub,2013-02-16 07:55:00,